Torna al catalogo

STARLINK-30519

AttivoComunicazioniVLEO
NORAD 57985·PAYLOAD·🇺🇸 United States

Lanciato Sep 30, 2023 da Cape Canaveral Space Force Station

Loading…

Prossimi Passaggi (prossime 24 ore)

TLE

AggiornatoSource: CelesTrak SupGP

Epoca: Sep 15, 2026, 01:44 UTC

1 57985C 23151X   26258.07270833 -.00038332  00000+0 -13886-2 0  2585
2 57985  43.0037   1.3358 0001580 261.4113 142.2908 15.27591642    14

Traccia STARLINK-30519 in tempo reale con AllMySat

Download on the App Store